This is the latest recevied weather packets stored in our database for station/object DG1JLA-3. If no packets are shown the sender has not sent any weather packets the latest 1 day(s).
| Time | Temp. | Humidity | Pressure | Rain* | Wind** | Luminosity | Snow |
|---|---|---|---|---|---|---|---|
| 1777992290 | 17.78° C | 73% | 1009.4 hPa | 0 mm | 2.24 m/s, 79° | - | - |
| 1777991990 | 17.78° C | 70% | 1009.4 hPa | 0 mm | 3.13 m/s, 52° | - | - |
| 1777991690 | 17.78° C | 71% | 1009.3 hPa | 0 mm | 3.13 m/s, 44° | - | - |
| 1777991390 | 17.78° C | 70% | 1009.4 hPa | 0 mm | 3.13 m/s, 65° | - | - |
| 1777991090 | 17.78° C | 71% | 1009.5 hPa | 0 mm | 3.13 m/s, 47° | - | - |
| 1777990790 | 17.78° C | 71% | 1009.6 hPa | 0 mm | 2.68 m/s, 47° | - | - |
| 1777990490 | 17.78° C | 71% | 1009.6 hPa | 0 mm | 2.68 m/s, 34° | - | - |
| 1777990190 | 17.78° C | 71% | 1009.7 hPa | 0 mm | 3.58 m/s, 34° | - | - |
| 1777989890 | 17.78° C | 72% | 1009.7 hPa | 0 mm | 3.13 m/s, 46° | - | - |
| 1777989590 | 17.78° C | 71% | 1009.8 hPa | 0 mm | 2.68 m/s, 60° | - | - |
| 1777989290 | 17.78° C | 73% | 1009.6 hPa | 0 mm | 2.68 m/s, 32° | - | - |
| 1777988990 | 17.78° C | 73% | 1009.7 hPa | 0 mm | 2.68 m/s, 89° | - | - |
| 1777988690 | 17.78° C | 72% | 1009.7 hPa | 0 mm | 3.13 m/s, 33° | - | - |
| 1777988390 | 17.78° C | 72% | 1009.8 hPa | 0 mm | 2.68 m/s, 62° | - | - |
| 1777988090 | 17.78° C | 72% | 1009.8 hPa | 0 mm | 2.68 m/s, 39° | - | - |
| 1777987790 | 17.22° C | 74% | 1009.8 hPa | 0 mm | 2.68 m/s, 38° | - | - |
| 1777987490 | 17.22° C | 73% | 1009.8 hPa | 0 mm | 2.68 m/s, 66° | - | - |
| 1777987190 | 17.22° C | 76% | 1009.7 hPa | 0 mm | 2.68 m/s, 35° | - | - |
| 1777986890 | 17.22° C | 75% | 1009.7 hPa | 0 mm | 2.68 m/s, 34° | - | - |
| 1777986590 | 17.22° C | 76% | 1009.7 hPa | 0 mm | 2.68 m/s, 39° | - | - |
| 1777986290 | 17.22° C | 77% | 1009.7 hPa | 0 mm | 2.68 m/s, 34° | - | - |
| 1777985990 | 17.22° C | 78% | 1009.7 hPa | 0 mm | 2.24 m/s, 11° | - | - |
| 1777985690 | 17.22° C | 78% | 1009.8 hPa | 0 mm | 2.24 m/s, 24° | - | - |
| 1777985390 | 16.67° C | 80% | 1009.9 hPa | 0 mm | 2.24 m/s, 340° | - | - |
| 1777985091 | 16.11° C | 81% | 1009.9 hPa | 0 mm | 2.24 m/s, 21° | - | - |
* Rain latest hour (hover to see other rain measurements)
** Current wind speed in m/s (hover to see current wind gust speed)